TimeCST,TemperatureF,Dew PointF,Humidity,Sea Level PressureIn,VisibilityMPH,Wind Direction,Wind SpeedMPH,Gust SpeedMPH,PrecipitationIn,Events,Conditions,WindDirDegrees,DateUTC
12:15 AM,8.4,-1.7,64,30.47,10.0,East,6.9,-,N/A,,Scattered Clouds,80,2013-12-07 06:15:00
12:35 AM,7.7,-1.8,65,30.47,10.0,East,6.9,-,N/A,,Scattered Clouds,90,2013-12-07 06:35:00
12:55 AM,7.3,-1.8,66,30.47,10.0,East,4.6,-,N/A,,Clear,100,2013-12-07 06:55:00
1:15 AM,6.8,-1.8,68,30.47,10.0,East,4.6,-,N/A,,Clear,90,2013-12-07 07:15:00
1:35 AM,6.1,-1.7,71,30.46,10.0,East,4.6,-,N/A,,Clear,80,2013-12-07 07:35:00
1:55 AM,6.1,-2.2,69,30.46,10.0,ENE,4.6,-,N/A,,Clear,60,2013-12-07 07:55:00
2:15 AM,6.1,-2.2,69,30.46,10.0,ENE,5.8,-,N/A,,Clear,70,2013-12-07 08:15:00
2:35 AM,6.4,-2.2,68,30.46,10.0,ENE,5.8,-,N/A,,Mostly Cloudy,70,2013-12-07 08:35:00
2:55 AM,7.3,-2.0,66,30.46,10.0,East,5.8,-,N/A,,Overcast,80,2013-12-07 08:55:00
3:15 AM,7.7,-3.5,60,30.46,10.0,East,8.1,-,N/A,,Overcast,80,2013-12-07 09:15:00
3:35 AM,8.1,-3.6,59,30.46,10.0,East,9.2,-,N/A,,Overcast,80,2013-12-07 09:35:00
3:55 AM,8.1,-3.5,59,30.46,10.0,ENE,10.4,-,N/A,,Overcast,60,2013-12-07 09:55:00
4:15 AM,8.2,-4.7,56,30.45,10.0,ENE,10.4,-,N/A,,Overcast,70,2013-12-07 10:15:00
4:35 AM,8.1,-4.9,56,30.45,10.0,East,8.1,-,N/A,,Overcast,90,2013-12-07 10:35:00
4:55 AM,8.1,-5.1,55,30.46,10.0,East,6.9,-,N/A,,Overcast,100,2013-12-07 10:55:00
5:15 AM,8.1,-5.4,54,30.46,10.0,East,6.9,-,N/A,,Overcast,90,2013-12-07 11:15:00
5:35 AM,7.7,-5.1,56,30.45,10.0,East,6.9,-,N/A,,Overcast,90,2013-12-07 11:35:00
5:55 AM,7.9,-4.5,57,30.45,10.0,East,8.1,-,N/A,,Overcast,100,2013-12-07 11:55:00
6:15 AM,7.7,-4.9,56,30.44,10.0,East,9.2,-,N/A,,Overcast,100,2013-12-07 12:15:00
6:35 AM,7.9,-4.7,57,30.45,10.0,ESE,8.1,-,N/A,,Overcast,110,2013-12-07 12:35:00
6:55 AM,7.7,-4.9,56,30.45,10.0,ESE,8.1,-,N/A,,Overcast,120,2013-12-07 12:55:00
7:15 AM,7.9,-5.3,55,30.46,10.0,ESE,6.9,-,N/A,,Overcast,120,2013-12-07 13:15:00
7:35 AM,8.2,-4.9,55,30.46,10.0,ESE,8.1,-,N/A,,Overcast,120,2013-12-07 13:35:00
7:55 AM,7.7,-5.3,56,30.46,10.0,SE,8.1,-,N/A,,Overcast,130,2013-12-07 13:55:00
8:15 AM,8.2,-4.9,55,30.45,10.0,ESE,9.2,-,N/A,,Overcast,120,2013-12-07 14:15:00
8:35 AM,8.2,-4.9,55,30.46,10.0,SE,9.2,-,N/A,,Overcast,130,2013-12-07 14:35:00
8:55 AM,8.6,-4.4,56,30.46,10.0,SE,8.1,-,N/A,,Overcast,130,2013-12-07 14:55:00
9:15 AM,9.3,-4.0,55,30.46,10.0,SSE,9.2,-,N/A,,Overcast,150,2013-12-07 15:15:00
9:35 AM,9.7,-3.8,54,30.45,10.0,SSE,6.9,-,N/A,,Overcast,150,2013-12-07 15:35:00
9:55 AM,10.8,-4.0,52,30.43,10.0,ESE,8.1,-,N/A,,Overcast,120,2013-12-07 15:55:00
10:15 AM,12.0,-3.3,50,30.40,10.0,ESE,9.2,-,N/A,,Overcast,120,2013-12-07 16:15:00
10:35 AM,13.6,-3.3,47,30.40,10.0,ESE,13.8,-,N/A,,Overcast,120,2013-12-07 16:35:00
10:55 AM,13.6,-3.8,46,30.39,10.0,SE,11.5,-,N/A,,Overcast,140,2013-12-07 16:55:00
11:15 AM,13.6,-4.5,44,30.38,10.0,ESE,8.1,-,N/A,,Overcast,110,2013-12-07 17:15:00
11:35 AM,14.5,-4.4,43,30.37,10.0,ESE,6.9,-,N/A,,Overcast,120,2013-12-07 17:35:00
11:55 AM,14.4,-5.1,42,30.35,10.0,ESE,6.9,-,N/A,,Overcast,120,2013-12-07 17:55:00
12:15 PM,15.1,-4.4,42,30.34,10.0,SE,8.1,-,N/A,,Overcast,140,2013-12-07 18:15:00
12:35 PM,15.4,-4.4,41,30.33,10.0,SSE,8.1,-,N/A,,Overcast,150,2013-12-07 18:35:00
12:55 PM,14.9,-4.5,42,30.33,10.0,SE,8.1,-,N/A,,Overcast,130,2013-12-07 18:55:00
1:15 PM,14.9,-4.2,43,30.31,10.0,SE,9.2,-,N/A,,Overcast,130,2013-12-07 19:15:00
1:35 PM,14.9,-4.0,43,30.30,10.0,SE,8.1,-,N/A,,Overcast,140,2013-12-07 19:35:00
1:55 PM,15.4,-3.8,42,30.28,10.0,SE,6.9,-,N/A,,Overcast,130,2013-12-07 19:55:00
2:15 PM,15.4,-3.8,42,30.28,10.0,SE,8.1,-,N/A,,Overcast,130,2013-12-07 20:15:00
2:35 PM,15.4,-4.2,42,30.26,10.0,ESE,8.1,-,N/A,,Overcast,120,2013-12-07 20:35:00
2:55 PM,15.6,-4.2,41,30.25,10.0,ESE,9.2,-,N/A,,Overcast,120,2013-12-07 20:55:00
3:15 PM,16.2,-4.2,41,30.24,10.0,ESE,9.2,-,N/A,,Overcast,110,2013-12-07 21:15:00
3:35 PM,16.3,-4.4,40,30.23,10.0,ESE,9.2,-,N/A,,Overcast,120,2013-12-07 21:35:00
3:55 PM,17.4,-4.2,38,30.23,10.0,SE,12.7,-,N/A,,Overcast,140,2013-12-07 21:55:00
4:15 PM,17.4,-5.1,37,30.22,10.0,SSE,15.0,-,N/A,,Overcast,150,2013-12-07 22:15:00
4:35 PM,17.6,-6.3,34,30.21,10.0,SSE,16.1,-,N/A,,Overcast,150,2013-12-07 22:35:00
4:55 PM,17.2,-7.1,34,30.20,10.0,SE,15.0,-,N/A,,Overcast,140,2013-12-07 22:55:00
5:15 PM,16.7,-6.7,35,30.19,10.0,SE,16.1,-,N/A,,Overcast,140,2013-12-07 23:15:00
5:35 PM,16.5,-5.8,37,30.18,10.0,SSE,15.0,19.6,N/A,,Overcast,150,2013-12-07 23:35:00
5:55 PM,16.2,-4.9,39,30.17,10.0,SSE,16.1,-,N/A,,Overcast,150,2013-12-07 23:55:00
6:15 PM,16.0,-4.2,41,30.17,10.0,SSE,13.8,-,N/A,,Overcast,150,2013-12-08 00:15:00
6:35 PM,15.8,-4.0,41,30.16,10.0,SSE,16.1,-,N/A,,Overcast,150,2013-12-08 00:35:00
6:55 PM,15.8,-3.5,43,30.15,10.0,SE,15.0,-,N/A,,Overcast,140,2013-12-08 00:55:00
7:15 PM,16.5,-2.4,43,30.14,10.0,SSE,17.3,-,N/A,,Overcast,150,2013-12-08 01:15:00
7:35 PM,16.3,-2.2,44,30.13,10.0,SSE,18.4,23.0,N/A,,Overcast,150,2013-12-08 01:35:00
7:55 PM,15.8,-1.8,46,30.11,10.0,SSE,15.0,-,N/A,,Overcast,160,2013-12-08 01:55:00
8:15 PM,16.3,-0.6,47,30.10,10.0,SSE,18.4,-,N/A,,Overcast,160,2013-12-08 02:15:00
8:35 PM,16.3,1.0,51,30.11,10.0,SSE,18.4,-,N/A,,Overcast,160,2013-12-08 02:35:00
8:55 PM,16.2,2.3,54,30.10,10.0,SSE,18.4,21.9,N/A,,Overcast,160,2013-12-08 02:55:00
9:15 PM,15.8,4.8,62,30.10,10.0,SSE,19.6,-,N/A,,Overcast,160,2013-12-08 03:15:00
9:35 PM,15.6,5.9,66,30.09,10.0,South,17.3,-,N/A,,Overcast,170,2013-12-08 03:35:00
9:55 PM,15.6,6.8,68,30.09,10.0,SSE,17.3,-,N/A,,Overcast,160,2013-12-08 03:55:00
10:15 PM,15.8,7.5,70,30.09,10.0,SSE,15.0,-,N/A,,Overcast,160,2013-12-08 04:15:00
10:35 PM,16.2,8.2,71,30.08,10.0,South,17.3,-,N/A,,Overcast,170,2013-12-08 04:35:00
10:55 PM,16.2,9.0,73,30.07,10.0,SSE,16.1,-,N/A,,Overcast,160,2013-12-08 04:55:00
11:15 PM,15.8,9.5,76,30.06,10.0,SSE,15.0,-,N/A,,Overcast,160,2013-12-08 05:15:00
11:35 PM,16.2,9.3,74,30.04,10.0,SSE,17.3,-,N/A,,Overcast,160,2013-12-08 05:35:00
11:55 PM,16.3,9.9,76,30.03,10.0,SSE,15.0,-,N/A,,Overcast,160,2013-12-08 05:55:00